TimeEST,TemperatureF,Dew PointF,Humidity,Sea Level PressureIn,VisibilityMPH,Wind Direction,Wind SpeedMPH,Gust SpeedMPH,PrecipitationIn,Events,Conditions,WindDirDegrees,DateUTC
12:51 AM,30.9,24.1,76,29.93,10.0,Calm,Calm,-,N/A,,Clear,0,2013-01-07 05:51:00
1:51 AM,27.0,21.9,81,29.95,10.0,Calm,Calm,-,N/A,,Overcast,0,2013-01-07 06:51:00
2:51 AM,33.1,26.1,75,29.96,10.0,WNW,5.8,-,N/A,,Overcast,300,2013-01-07 07:51:00
3:51 AM,35.1,26.1,70,29.97,10.0,Calm,Calm,-,N/A,,Overcast,0,2013-01-07 08:51:00
4:51 AM,34.0,26.1,73,29.99,10.0,Variable,3.5,-,N/A,,Overcast,0,2013-01-07 09:51:00
5:51 AM,30.0,25.0,82,30.04,10.0,Calm,Calm,-,N/A,,Mostly Cloudy,0,2013-01-07 10:51:00
6:51 AM,30.9,26.1,82,30.08,10.0,Calm,Calm,-,N/A,,Mostly Cloudy,0,2013-01-07 11:51:00
7:19 AM,26.6,24.8,93,30.10,10.0,North,4.6,-,N/A,,Mostly Cloudy,360,2013-01-07 12:19:00
7:51 AM,28.0,24.1,85,30.13,10.0,North,4.6,-,N/A,,Overcast,360,2013-01-07 12:51:00
8:38 AM,28.4,24.8,86,30.17,10.0,North,5.8,-,N/A,,Overcast,350,2013-01-07 13:38:00
8:51 AM,28.9,24.1,82,30.19,10.0,NNE,5.8,-,N/A,,Overcast,20,2013-01-07 13:51:00
9:05 AM,28.4,24.8,86,30.20,10.0,NNE,4.6,-,N/A,,Mostly Cloudy,20,2013-01-07 14:05:00
9:51 AM,30.0,24.1,79,30.24,10.0,North,5.8,-,N/A,,Mostly Cloudy,360,2013-01-07 14:51:00
10:23 AM,30.2,24.8,80,30.24,10.0,Variable,3.5,-,N/A,,Mostly Cloudy,0,2013-01-07 15:23:00
11:51 AM,32.0,18.0,56,30.25,10.0,NNW,8.1,-,N/A,,Overcast,340,2013-01-07 16:51:00
12:51 PM,33.1,17.1,52,30.27,10.0,WNW,4.6,-,N/A,,Partly Cloudy,300,2013-01-07 17:51:00
1:51 PM,33.1,14.0,46,30.28,10.0,West,3.5,-,N/A,,Clear,280,2013-01-07 18:51:00
2:51 PM,32.0,12.9,45,30.31,10.0,WNW,4.6,-,N/A,,Clear,290,2013-01-07 19:51:00
3:51 PM,30.9,8.1,38,30.33,10.0,WNW,5.8,-,N/A,,Clear,290,2013-01-07 20:51:00
4:51 PM,28.9,6.1,38,30.35,10.0,Calm,Calm,-,N/A,,Clear,0,2013-01-07 21:51:00
5:51 PM,27.0,8.1,45,30.36,10.0,Calm,Calm,-,N/A,,Clear,0,2013-01-07 22:51:00
6:51 PM,25.0,9.0,51,30.37,10.0,Calm,Calm,-,N/A,,Clear,0,2013-01-07 23:51:00
7:51 PM,24.1,8.1,51,30.35,10.0,Calm,Calm,-,N/A,,Clear,0,2013-01-08 00:51:00
8:51 PM,21.9,8.1,55,30.35,10.0,Calm,Calm,-,N/A,,Clear,0,2013-01-08 01:51:00
9:51 PM,21.9,8.1,55,30.34,10.0,Calm,Calm,-,N/A,,Clear,0,2013-01-08 02:51:00
10:51 PM,17.1,8.1,68,30.34,10.0,Calm,Calm,-,N/A,,Clear,0,2013-01-08 03:51:00
11:51 PM,16.0,8.1,71,30.32,10.0,Calm,Calm,-,N/A,,Clear,0,2013-01-08 04:51:00